Date String (YYYY-MM-DD hh:mm:ss) UTC,Instrument flags,Ambient pressure (hPa),Sample flow (lpm),Bypass flow (lpm),Sample temperature (°C),Ambient temperature (°C),ASC tube jacket temperature (°C),LED temperature (°C),Box temperature (°C),Sample RH (%),Span deviation,Mass concentration (μg/m³),Mass concentration (μg/m³),Mass concentration (μg/m³)
DateTimeUTC,F1_M11,P_M11,Q1_M11,Q2_M11,T1_M11,T2_M11,T3_M11,T4_M11,T5_M11,U1_M11,ZSPAN_M11,X0_M11,X2_M11,X1_M11
2023-01-13 12:00:00,,0830.9,5.01,0.00,22.2,20.9,00.0,31.1,24.0,10.0,0001.6,0012.12,0008.07,0007.48
2023-01-13 12:01:00,,0830.9,5.01,0.00,22.3,21.0,00.0,31.1,24.0,09.8,0002.3,0011.97,0008.01,0007.42
2023-01-13 12:02:00,,0831.0,5.01,0.00,22.3,21.7,00.0,31.1,24.2,10.0,0002.5,0011.87,0007.95,0007.38
2023-01-13 12:03:00,,0831.0,5.00,0.00,22.4,22.4,00.0,31.1,24.4,10.0,0002.4,0011.84,0007.93,0007.34
2023-01-13 12:04:00,,0831.0,4.99,0.00,22.5,22.4,00.0,31.2,24.5,09.9,0002.3,0011.72,0007.88,0007.30
2023-01-13 12:05:00,,0831.0,5.00,0.00,22.5,22.1,00.0,31.2,24.4,09.9,0001.7,0011.68,0007.83,0007.23
2023-01-13 12:06:00,,0830.9,5.01,0.00,22.5,21.9,00.0,31.2,24.3,09.9,0001.9,0011.71,0007.73,0007.15
2023-01-13 12:07:00,,0830.9,5.01,0.00,22.5,21.7,00.0,31.2,24.3,09.6,0002.0,0011.66,0007.62,0007.08
2023-01-13 12:08:00,,0830.9,5.00,0.00,22.5,21.5,00.0,31.3,24.3,09.4,0002.3,0011.44,0007.52,0007.04
2023-01-13 12:09:00,,0830.9,4.99,0.00,22.5,21.5,00.0,31.3,24.3,09.4,0001.9,0011.35,0007.46,0007.01
2023-01-13 12:10:00,,0830.9,5.00,0.00,22.5,21.5,00.0,31.3,24.3,09.5,0001.7,0011.27,0007.45,0006.99
2023-01-13 12:11:00,,0831.0,5.00,0.00,22.5,21.4,00.0,31.3,24.3,09.5,0001.7,0011.24,0007.44,0006.98
2023-01-13 12:12:00,,0831.1,4.99,0.00,22.5,21.4,00.0,31.3,24.3,09.6,0001.8,0011.37,0007.44,0006.96
2023-01-13 12:13:00,,0831.0,5.01,0.00,22.5,21.4,00.0,31.3,24.3,09.8,0002.1,0011.36,0007.43,0006.94
2023-01-13 12:14:00,,0831.0,5.00,0.00,22.5,21.3,00.0,31.3,24.2,10.0,0001.4,0011.28,0007.35,0006.89
2023-01-13 12:15:00,,0831.0,5.00,0.00,22.5,21.3,00.0,31.3,24.2,10.1,0001.9,0011.26,0007.27,0006.81
2023-01-13 12:16:00,,0831.1,5.00,0.00,22.5,21.3,00.0,31.3,24.2,10.1,0001.2,0011.09,0007.14,0006.72
2023-01-13 12:17:00,,0831.1,4.99,0.00,22.5,21.3,00.0,31.3,24.2,10.1,0000.0,0010.76,0007.01,0006.61
2023-01-13 12:18:00,,0831.1,5.00,0.00,22.5,21.2,00.0,31.3,24.2,10.1,0000.0,0010.45,0006.91,0006.52
2023-01-13 12:19:00,,0831.0,5.02,0.00,22.5,21.2,00.0,31.3,24.2,10.0,0000.0,0009.88,0006.84,0006.46
2023-01-13 12:20:00,,0831.1,5.00,0.00,22.5,21.2,00.0,31.3,24.2,10.0,0000.0,0009.79,0006.80,0006.41
2023-01-13 12:21:00,,0831.2,5.00,0.00,22.4,21.2,00.0,31.3,24.2,10.0,0000.0,0009.70,0006.75,0006.38
2023-01-13 12:22:00,,0831.2,5.00,0.00,22.4,21.2,00.0,31.3,24.2,10.1,0000.0,0009.64,0006.69,0006.31
2023-01-13 12:23:00,,0831.2,4.99,0.00,22.4,21.1,00.0,31.3,24.2,10.0,0000.1,0009.56,0006.62,0006.27
2023-01-13 12:24:00,,0831.2,4.99,0.00,22.4,21.1,00.0,31.3,24.2,10.1,0000.2,0009.54,0006.59,0006.26
2023-01-13 12:25:00,,0831.2,5.00,0.00,22.4,21.0,00.0,31.3,24.1,10.0,0000.3,0009.54,0006.61,0006.28
2023-01-13 12:26:00,,0831.2,4.99,0.00,22.4,21.0,00.0,31.3,24.1,09.9,0000.4,0009.55,0006.69,0006.36
2023-01-13 12:27:00,,0831.2,5.00,0.00,22.4,21.0,00.0,31.3,24.1,09.8,-000.1,0009.75,0006.82,0006.46
2023-01-13 12:28:00,,0831.2,5.00,0.00,22.4,20.9,00.0,31.3,24.1,09.8,0000.3,0009.83,0006.93,0006.57
2023-01-13 12:29:00,,0831.2,5.00,0.00,22.4,20.9,00.0,31.3,24.1,09.8,0000.7,0009.94,0007.05,0006.70
2023-01-13 12:30:00,,0831.2,4.99,0.00,22.3,20.9,00.0,31.2,24.1,09.8,0001.1,0010.16,0007.22,0006.84
2023-01-13 12:31:00,,0831.2,5.00,0.00,22.4,21.4,00.0,31.2,24.2,09.7,0001.4,0010.51,0007.39,0006.96
2023-01-13 12:32:00,,0831.2,4.99,0.00,22.5,22.3,00.0,31.2,24.4,09.7,0001.5,0010.68,0007.51,0007.09
2023-01-13 12:33:00,,0831.3,5.00,0.00,22.6,23.0,00.0,31.2,24.6,09.6,0001.3,0010.75,0007.61,0007.20
2023-01-13 12:34:00,,0831.2,4.99,0.00,22.7,22.8,00.0,31.3,24.7,09.4,0000.7,0010.76,0007.71,0007.31
2023-01-13 12:35:00,,0831.2,5.00,0.00,22.7,22.4,00.0,31.3,24.6,09.3,0000.4,0010.73,0007.76,0007.39
2023-01-13 12:36:00,,0831.2,5.00,0.00,22.7,22.1,00.0,31.4,24.5,09.2,0000.3,0010.79,0007.83,0007.48
2023-01-13 12:37:00,,0831.2,5.00,0.00,22.7,21.8,00.0,31.4,24.5,09.2,0000.3,0010.90,0007.91,0007.55
2023-01-13 12:38:00,,0831.2,5.01,0.00,22.6,21.7,00.0,31.4,24.5,09.3,0000.5,0010.95,0007.99,0007.63
2023-01-13 12:39:00,,0831.2,5.00,0.00,22.6,21.6,00.0,31.4,24.4,09.2,0000.8,0011.03,0008.07,0007.73
2023-01-13 12:40:00,,0831.3,5.00,0.00,22.6,21.4,00.0,31.4,24.4,09.2,0000.1,0011.14,0008.15,0007.78
2023-01-13 12:41:00,,0831.3,5.01,0.00,22.6,21.4,00.0,31.4,24.3,09.2,0000.5,0011.19,0008.16,0007.79
2023-01-13 12:42:00,,0831.3,5.00,0.00,22.6,21.3,00.0,31.4,24.3,09.2,0000.3,0011.33,0008.15,0007.80
2023-01-13 12:43:00,,0831.4,5.00,0.00,22.6,21.2,00.0,31.4,24.3,09.2,0000.7,0011.73,0008.18,0007.81
2023-01-13 12:44:00,,0831.2,5.00,0.00,22.5,21.1,00.0,31.4,24.3,09.2,0001.6,0011.78,0008.22,0007.84
2023-01-13 12:45:00,,0831.2,5.00,0.00,22.5,21.0,00.0,31.4,24.2,09.1,0001.5,0011.75,0008.21,0007.85
2023-01-13 12:46:00,,0831.2,5.00,0.00,22.5,21.0,00.0,31.4,24.2,09.0,0001.2,0011.85,0008.26,0007.85
2023-01-13 12:47:00,,0831.2,5.02,0.00,22.5,21.0,00.0,31.4,24.2,09.0,0000.7,0011.83,0008.23,0007.82
2023-01-13 12:48:00,,0831.4,5.01,0.00,22.5,21.1,00.0,31.4,24.2,09.0,0000.3,0012.32,0008.18,0007.77
2023-01-13 12:49:00,,0831.4,5.01,0.00,22.5,21.1,00.0,31.4,24.2,09.0,0000.1,0012.44,0008.15,0007.71
2023-01-13 12:50:00,,0831.5,5.00,0.00,22.5,21.0,00.0,31.4,24.2,09.0,-000.8,0012.58,0008.18,0007.71
2023-01-13 12:51:00,,0831.4,5.00,0.00,22.4,21.0,00.0,31.4,24.1,08.9,-000.3,0012.61,0008.14,0007.67
2023-01-13 12:52:00,,0831.5,5.00,0.00,22.4,20.9,00.0,31.4,24.1,08.8,-000.6,0012.56,0008.07,0007.59
2023-01-13 12:53:00,,0831.4,4.99,0.00,22.4,20.9,00.0,31.3,24.1,08.7,-001.2,0012.18,0007.97,0007.51
2023-01-13 12:54:00,,0831.4,5.00,0.00,22.4,20.9,00.0,31.3,24.1,08.6,-001.3,0011.68,0007.86,0007.41
2023-01-13 12:55:00,,0831.4,5.01,0.00,22.3,20.8,00.0,31.3,24.1,08.7,-001.7,0011.56,0007.75,0007.31
2023-01-13 12:56:00,,0831.5,5.00,0.00,22.3,20.8,00.0,31.3,24.0,09.3,-001.5,0011.60,0007.71,0007.26
2023-01-13 12:57:00,,0831.5,5.00,0.00,22.3,20.8,00.0,31.3,24.0,09.4,-001.8,0011.76,0007.66,0007.21
2023-01-13 12:58:00,,0831.5,4.99,0.00,22.3,20.7,00.0,31.3,24.0,09.1,-001.6,0011.73,0007.65,0007.21
2023-01-13 12:59:00,,0831.5,5.01,0.00,22.3,21.0,00.0,31.2,24.1,08.7,-001.3,0011.10,0007.60,0007.17
